Weather History for PASN - December, 2013

Change the Weather History Date:

Monday, December 2, 2013

  Actual Average Record
Temperature  
Mean Temperature 39 °F 31 °F  
Max Temperature 40 °F 35 °F 41 °F (1958)
Min Temperature 37 °F 26 °F 6 °F (1987)
Degree Days  
Heating Degree Days 26 34  
Month to date heating degree days 55 68  
Since 1 July heating degree days 3337 3488  
Cooling Degree Days 0    
Month to date cooling degree days 0  
Year to date cooling degree days 0  
Moisture  
Dew Point 38 °F    
Average Humidity 0    
Maximum Humidity 0    
Minimum Humidity 0    
Precipitation  
Precipitation T in 0.08 in 0.53 in (1965)
Month to date precipitation 0.01 0.16  
Year to date precipitation 24.29 21.58  
Snow  
Snow 0.00 in 0.30 in 2.60 in (1952)
Month to date snowfall T 0.7  
Since 1 July snowfall 2.7 11.0  
Snow Depth 0.00 in    
Sea Level Pressure  
Sea Level Pressure 30.23 in    
Wind  
Wind Speed 14 mph (SSE)    
Max Wind Speed 25 mph    
Max Gust Speed 30 mph    
Visibility 6 miles    
Events Rain    
T = Trace of Precipitation, MM = Missing Value Source: NWS Daily Summary

Daily Weather History Graph

Daily Weather History Graph

Search for Another Location

Airport or City:

Trip Planner

Search our weather history database for the weather conditions in past years. The results will help you decide how hot, cold, wet, or windy it might be!

Date:

Astronomy

Dec. 02, 2013 Rise Set
Actual Time 10:37 AM AKST 5:43 PM AKST
Civil Twilight 9:49 AM AKST 6:30 PM AKST
Nautical Twilight 8:59 AM AKST 7:20 PM AKST
Astronomical Twilight 8:13 AM AKST 8:07 PM AKST
Moon 10:10 AM AKST (12/2) 6:05 PM AKST (12/2)
Length of Visible Light 8h 41m
Length of Day
7h 05m
Waning Crescent, 0% of the Moon is Illuminated
Dec 2
Waning Crescent
Dec 2
New
Dec 9
First Quarter
Dec 17
Full
Dec 25
Last Quarter

Hourly Weather History & Observations

Time (AKST) Temp. Windchill Dew Point Humidity Pressure Visibility Wind Dir Wind Speed Gust Speed Precip Events Conditions
12:07 AM 39.2 °F 29.0 °F 35.6 °F 87% 30.12 in 10.0 mi SSE 21.9 mph - N/A   Overcast
12:53 AM 39.0 °F 29.0 °F 35.1 °F 86% 30.13 in 10.0 mi SSE 20.7 mph - N/A   Overcast
1:53 AM 39.0 °F 29.0 °F 36.0 °F 89% 30.14 in 8.0 mi SSE 20.7 mph - 0.00 in Rain Light Rain
2:53 AM 39.0 °F 28.5 °F 37.0 °F 93% 30.14 in 7.0 mi SSE 23.0 mph 29.9 mph 0.00 in   Overcast
3:06 AM 39.2 °F 29.3 °F 37.4 °F 93% 30.14 in 7.0 mi SSE 20.7 mph - N/A   Overcast
3:45 AM 39.2 °F 29.0 °F 37.4 °F 93% 30.14 in 7.0 mi SSE 21.9 mph - N/A   Overcast
3:53 AM 39.0 °F 28.8 °F 37.0 °F 93% 30.15 in 8.0 mi SSE 21.9 mph 29.9 mph N/A   Overcast
4:53 AM 39.0 °F 29.0 °F 37.0 °F 93% 30.16 in 8.0 mi SSE 20.7 mph - N/A   Overcast
5:24 AM 39.2 °F 29.6 °F 37.4 °F 93% 30.16 in 7.0 mi South 19.6 mph - N/A   Overcast
5:53 AM 39.9 °F 30.8 °F 37.9 °F 93% 30.17 in 7.0 mi South 18.4 mph - N/A   Overcast
6:04 AM 39.2 °F 29.6 °F 37.4 °F 93% 30.16 in 7.0 mi South 19.6 mph - N/A   Overcast
6:25 AM 39.2 °F 29.8 °F 39.2 °F 100% 30.17 in 5.0 mi South 18.4 mph - N/A   Overcast
6:53 AM 39.9 °F 30.5 °F 39.0 °F 97% 30.18 in 5.0 mi South 19.6 mph 25.3 mph N/A   Overcast
7:37 AM 39.2 °F 29.6 °F 37.4 °F 93% 30.18 in 7.0 mi South 19.6 mph - N/A   Overcast
7:53 AM 39.0 °F 29.0 °F 37.9 °F 96% 30.19 in 7.0 mi South 20.7 mph 27.6 mph 0.00 in   Overcast
8:53 AM 39.0 °F 30.3 °F 37.9 °F 96% 30.21 in 8.0 mi SSE 16.1 mph - N/A   Overcast
9:16 AM 39.2 °F 29.8 °F 37.4 °F 93% 30.21 in 5.0 mi SSE 18.4 mph - N/A   Overcast
9:31 AM 39.2 °F 30.5 °F 39.2 °F 100% 30.22 in 2.5 mi SSE 16.1 mph - N/A   Overcast
9:33 AM 39.2 °F 30.8 °F 39.2 °F 100% 30.22 in 2.5 mi SSE 15.0 mph - N/A   Overcast
9:53 AM 39.0 °F 30.3 °F 39.0 °F 100% 30.22 in 3.0 mi SSE 16.1 mph - N/A   Overcast
10:18 AM 39.2 °F 30.8 °F 39.2 °F 100% 30.23 in 2.5 mi South 15.0 mph - N/A   Overcast
10:45 AM 39.2 °F 31.2 °F 39.2 °F 100% 30.24 in 3.0 mi South 13.8 mph - N/A   Overcast
10:53 AM 39.9 °F 31.1 °F 39.9 °F 100% 30.24 in 4.0 mi South 17.3 mph - N/A   Overcast
11:33 AM 39.2 °F 31.2 °F 39.2 °F 100% 30.25 in 4.0 mi South 13.8 mph - N/A   Overcast
11:53 AM 39.9 °F 32.5 °F 39.0 °F 97% 30.26 in 6.0 mi South 12.7 mph - N/A   Overcast
12:53 PM 39.9 °F 32.1 °F 39.0 °F 97% 30.28 in 5.0 mi SSE 13.8 mph - N/A   Overcast
1:17 PM 39.2 °F 31.2 °F 39.2 °F 100% 30.28 in 1.8 mi SSE 13.8 mph - N/A   Overcast
1:31 PM 39.2 °F 30.8 °F 39.2 °F 100% 30.28 in 1.2 mi South 15.0 mph - N/A   Overcast
1:49 PM 39.2 °F 31.2 °F 39.2 °F 100% 30.28 in 3.0 mi SSE 13.8 mph - N/A   Overcast
1:53 PM 39.0 °F 31.4 °F 39.0 °F 100% 30.28 in 4.0 mi SSE 12.7 mph - N/A   Overcast
2:15 PM 39.2 °F 32.0 °F 39.2 °F 100% 30.28 in 3.0 mi SSE 11.5 mph - N/A   Overcast
2:38 PM 39.2 °F 33.0 °F 39.2 °F 100% 30.28 in 2.5 mi SSE 9.2 mph - N/A   Overcast
2:44 PM 39.2 °F 33.6 °F 39.2 °F 100% 30.28 in 2.5 mi SSE 8.1 mph - N/A   Overcast
2:53 PM 39.0 °F 32.8 °F 39.0 °F 100% 30.28 in 4.0 mi SSE 9.2 mph - N/A   Overcast
3:43 PM 39.2 °F 35.0 °F 37.4 °F 93% 30.27 in 6.0 mi SSE 5.8 mph - N/A   Overcast
3:53 PM 39.9 °F 34.5 °F 37.9 °F 93% 30.28 in 7.0 mi SSE 8.1 mph - N/A   Overcast
4:38 PM 39.2 °F 34.2 °F 37.4 °F 93% 30.27 in 6.0 mi SE 6.9 mph - N/A   Overcast
4:53 PM 39.0 °F 34.0 °F 37.9 °F 96% 30.27 in 6.0 mi ESE 6.9 mph - N/A   Overcast
5:29 PM 39.2 °F 33.0 °F 37.4 °F 93% 30.28 in 6.0 mi SE 9.2 mph - N/A   Overcast
5:53 PM 39.0 °F 33.4 °F 37.9 °F 96% 30.28 in 8.0 mi SE 8.1 mph - N/A   Overcast
6:53 PM 39.0 °F 34.0 °F 37.9 °F 96% 30.29 in 7.0 mi SE 6.9 mph - N/A   Mostly Cloudy
7:08 PM 39.2 °F 34.2 °F 37.4 °F 93% 30.28 in 8.0 mi ESE 6.9 mph - N/A   Mostly Cloudy
7:53 PM 39.0 °F 35.7 °F 37.9 °F 96% 30.28 in 8.0 mi East 4.6 mph - N/A   Overcast
8:53 PM 37.9 °F 32.7 °F 37.0 °F 97% 30.28 in 8.0 mi ENE 6.9 mph - N/A   Overcast
9:24 PM 39.2 °F 33.0 °F 37.4 °F 93% 30.27 in 8.0 mi East 9.2 mph - N/A   Overcast
9:53 PM 37.9 °F 32.7 °F 37.0 °F 97% 30.27 in 9.0 mi ENE 6.9 mph - N/A   Overcast
10:53 PM 37.9 °F 30.5 °F 36.0 °F 93% 30.27 in 10.0 mi East 11.5 mph - N/A   Overcast
11:53 PM 37.0 °F 26.7 °F 35.1 °F 93% 30.27 in 10.0 mi East 19.6 mph - 0.00 in Rain Light Rain